Terminal Aerodrome Forecast
Issued by NWS

Home | Current Version | Previous Version | Text Only | Print | Product List | Glossary On
Versions: 1 2 3 4 5 6 7 8 9 10 11 12 13 14 15 16 17 18 19 20 21 22 23 24
000
FTUS44 KOUN 221134
TAFGAG
TAF
KGAG 221134Z 2212/2312 18013KT P6SM SCT120
     FM221500 20016G24KT P6SM FEW120
     FM222000 18018G26KT P6SM SCT250=

USA.gov is the U.S. government's official web portal to all federal, state and local government web resources and services.